This is the latest recevied weather packets stored in our database for station/object DK4MDA-13. If no packets are shown the sender has not sent any weather packets the latest 10 day(s).
| Time | Temp. | Humidity | Pressure | Rain* | Wind** | Luminosity | Snow |
|---|---|---|---|---|---|---|---|
| 1777735034 | 29.44° C | 29% | 1016.9 hPa | 0 mm | - | - | - |
| 1777734734 | 29.44° C | 30% | 1017 hPa | 0 mm | - | - | - |
| 1777734134 | 29.44° C | 30% | 1017.1 hPa | 0 mm | - | - | - |
| 1777733834 | 30° C | 30% | 1017.1 hPa | 0 mm | - | - | - |
| 1777733234 | 29.44° C | 30% | 1017.4 hPa | 0 mm | - | - | - |
| 1777732934 | 29.44° C | 30% | 1017.4 hPa | 0 mm | - | - | - |
| 1777732334 | 29.44° C | 31% | 1017.5 hPa | 0 mm | - | - | - |
| 1777732034 | 29.44° C | 30% | 1017.5 hPa | 0 mm | - | - | - |
| 1777731434 | 28.89° C | 31% | 1017.7 hPa | 0 mm | - | - | - |
| 1777731134 | 28.89° C | 30% | 1017.9 hPa | 0 mm | - | - | - |
| 1777730535 | 28.89° C | 27% | 1017.9 hPa | 0 mm | - | - | - |
| 1777730234 | 28.89° C | 29% | 1018 hPa | 0 mm | - | - | - |
| 1777729635 | 28.89° C | 30% | 1018.3 hPa | 0 mm | - | - | - |
| 1777729335 | 28.89° C | 28% | 1018.4 hPa | 0 mm | - | - | - |
| 1777728435 | 28.89° C | 31% | 1018.5 hPa | 0 mm | - | - | - |
| 1777728135 | 28.89° C | 28% | 1018.6 hPa | 0 mm | - | - | - |
| 1777727836 | 28.33° C | 31% | 1018.6 hPa | 0 mm | - | - | - |
| 1777727535 | 28.33° C | 28% | 1018.7 hPa | 0 mm | - | - | - |
| 1777727235 | 28.89° C | 28% | 1018.8 hPa | 0 mm | - | - | - |
| 1777726935 | 28.33° C | 30% | 1018.7 hPa | 0 mm | - | - | - |
| 1777726635 | 28.33° C | 28% | 1018.8 hPa | 0 mm | - | - | - |
| 1777726335 | 28.33° C | 30% | 1018.9 hPa | 0 mm | - | - | - |
| 1777726035 | 27.78° C | 30% | 1019 hPa | 0 mm | - | - | - |
| 1777725735 | 28.33° C | 29% | 1019 hPa | 0 mm | - | - | - |
| 1777725435 | 28.89° C | 29% | 1018.9 hPa | 0 mm | - | - | - |
* Rain latest hour (hover to see other rain measurements)
** Current wind speed in m/s (hover to see current wind gust speed)